Flag for Germany Weather past 2 weeks in Höxter, North Rhine-Westphalia, Germany

Now
66 °F

Partly sunny.


Feels Like: 66 °F
Forecast: 47 / 69 °F
Wind: 5 mph from West

Location: Bad Lippspringe

Current Time: Sep 30, 2014 at 4:04:12 PM

Latest Report: Sep 30, 2014 at 3:00 PM


Visibility: 4 mi

Pressure: 30.26 "Hg

Humidity: 76%

Dew point: 58 °F

Location of HöxterLocation

Historic Weather in Höxter — Graph

°F

Höxter temperature yesterday

Maximum temperature yesterday: 72 °F (at 3:00 PM)
Minimum temperature yesterday: 52 °F (at 5:00 AM)
Average temperature yesterday: 62 °F

Past Weeks' High & Low Weather Summary

 TemperatureHumidityPressure
High75 °F (Sep 17, 3:00 PM)99% (Sep 21, 8:00 AM)30.40 "Hg (Sep 21, 8:00 AM)
Low45 °F (Sep 24, 7:00 AM)53% (Sep 27, 5:00 PM)29.83 "Hg (Sep 24, 7:00 PM)
Average60 °F82%30.06 "Hg
* Reported Sep 15 3:00 PM — Sep 30 3:00 PM, Höxter, Weather by CustomWeather, © 2014

Note: Actual official high and low records may vary slightly from our data, if they occured in-between our weather recording intervals... More about our weather records

Advertising

Höxter weather history for previous 24 hours

 ConditionsComfort  
Time TempWeatherWind HumidityBarometerVisibility
3:00 PM
Sep 30
66 °FPartly sunny.5 mph76%30.26 "Hg4 mi
2:00 PM64 °FFog.5 mph83%30.27 "Hg4 mi
1:00 PM63 °FFog.2 mph86%30.27 "Hg3 mi
12:00 PM63 °FFog.3 mph87%30.26 "Hg3 mi
11:00 AM63 °FFog.3 mph86%30.25 "Hg2 mi
10:00 AM61 °FOvercast.2 mph92%30.25 "Hg2 mi
9:00 AM60 °FOvercast.2 mph93%30.24 "Hg2 mi
8:00 AM60 °FFog.1 mph94%30.24 "Hg2 mi
7:00 AM59 °FFog.1 mph95%30.22 "Hg2 mi
6:00 AM59 °FFog.1 mph98%30.22 "Hg1 mi
5:00 AM59 °FFog.1 mph98%30.22 "Hg1 mi
4:00 AM59 °FLow clouds.No wind97%30.22 "Hg3 mi
3:00 AM59 °FOvercast.1 mph97%30.21 "Hg4 mi
2:00 AM59 °FDrizzle. Overcast.1 mph96%30.22 "Hg3 mi
1:00 AM59 °FLight freezing rain. Overcast.1 mph95%30.22 "Hg1 mi
12:00 AM60 °FLight rain. Low clouds.1 mph94%30.22 "Hg2 mi
11:00 PM
Sep 29
61 °FLight rain. Overcast.1 mph94%30.23 "Hg2 mi
10:00 PM62 °FLight rain. Overcast.1 mph92%30.23 "Hg2 mi
9:00 PM64 °FLight rain. Overcast.1 mph80%30.22 "Hg4 mi
8:00 PM67 °FOvercast.3 mph70%30.21 "Hg7 mi
7:00 PM68 °FOvercast.2 mph68%30.20 "Hg7 mi
6:00 PM69 °FOvercast.3 mph66%30.19 "Hg9 mi
5:00 PM70 °FOvercast.3 mph61%30.18 "Hg9 mi
4:00 PM71 °FOvercast.6 mph60%30.18 "Hg9 mi
Weather by CustomWeather, © 2014

See weather overviewHow to use our weather pages